• en Belgique
  • Liste des pays
  • À 7 jours
  • Température de l'eau
  • Carte satellitaire
  • Carte météo
  • Widgets météo
  • user-avatar
    Se connecter

    Météo par heure à Andenne

    Ce jour, 28 Mai, Lundi

    Heure Température Précipitation Vent Pression Humidité
    00:00 +19°C° 0 mm 1 m/s 752 mmHg 87%
    01:00 +19°C° 0 mm 1 m/s 752 mmHg 87%
    02:00 +18°C° 0 mm 1 m/s 752 mmHg 87%
    03:00 +18°C° 0 mm 1 m/s 752 mmHg 87%
    04:00 +19°C° 0 mm 1 m/s 752 mmHg 85%
    05:00 +20°C° 0 mm 1 m/s 752 mmHg 83%
    06:00 +21°C° 0 mm 1 m/s 752 mmHg 81%
    07:00 +23°C° 0 mm 1 m/s 752 mmHg 75%
    08:00 +25°C° 0 mm 1 m/s 753 mmHg 68%
    09:00 +27°C° 0 mm 2 m/s 753 mmHg 62%
    10:00 +27°C° 0 mm 2 m/s 752 mmHg 60%
    11:00 +28°C° 0 mm 2 m/s 752 mmHg 57%
    12:00 +29°C° 0 mm 3 m/s 752 mmHg 55%
    13:00 +29°C° 0,3 mm 3 m/s 752 mmHg 58%
    14:00 +29°C° 0,3 mm 3 m/s 752 mmHg 61%
    15:00 +29°C° 0,3 mm 3 m/s 751 mmHg 63%
    16:00 +28°C° 0,5 mm 2 m/s 751 mmHg 68%
    17:00 +27°C° 0,5 mm 2 m/s 751 mmHg 72%
    18:00 +26°C° 0,5 mm 2 m/s 751 mmHg 76%
    19:00 +24°C° 0,8 mm 2 m/s 751 mmHg 79%
    20:00 +23°C° 0,8 mm 2 m/s 751 mmHg 82%
    21:00 +21°C° 0,8 mm 2 m/s 751 mmHg 85%
    22:00 +21°C° 0,6 mm 1 m/s 751 mmHg 87%
    23:00 +21°C° 0,6 mm 1 m/s 751 mmHg 88%

    Demain, 29 Mai, Mardi

    Heure Température Précipitation Vent Pression Humidité
    00:00 +20°C° 0,6 mm 1 m/s 751 mmHg 90%
    01:00 +20°C° 0,7 mm 1 m/s 751 mmHg 91%
    02:00 +20°C° 0,7 mm 1 m/s 751 mmHg 92%
    03:00 +20°C° 0,7 mm 1 m/s 750 mmHg 92%
    04:00 +20°C° 0,1 mm 1 m/s 750 mmHg 92%
    05:00 +21°C° 0,1 mm 1 m/s 750 mmHg 91%
    06:00 +22°C° 0,1 mm 1 m/s 750 mmHg 90%
    07:00 +23°C° 0,7 mm 1 m/s 750 mmHg 86%
    08:00 +24°C° 0,7 mm 1 m/s 750 mmHg 83%
    09:00 +26°C° 0,7 mm 1 m/s 750 mmHg 80%
    10:00 +26°C° 1 mm 2 m/s 750 mmHg 78%
    11:00 +26°C° 1 mm 2 m/s 749 mmHg 76%
    12:00 +26°C° 1 mm 2 m/s 749 mmHg 75%
    13:00 +26°C° 0,5 mm 2 m/s 749 mmHg 76%
    14:00 +26°C° 0,5 mm 2 m/s 749 mmHg 77%
    15:00 +25°C° 0,5 mm 2 m/s 748 mmHg 78%
    16:00 +25°C° 0,8 mm 2 m/s 748 mmHg 81%
    17:00 +24°C° 0,8 mm 1 m/s 748 mmHg 83%
    18:00 +24°C° 0,8 mm 1 m/s 748 mmHg 86%
    19:00 +23°C° 0,6 mm 1 m/s 748 mmHg 87%
    20:00 +21°C° 0,6 mm 1 m/s 748 mmHg 89%
    21:00 +20°C° 0,6 mm 1 m/s 748 mmHg 90%
    22:00 +20°C° 0,1 mm 1 m/s 748 mmHg 91%
    23:00 +19°C° 0,1 mm 1 m/s 748 mmHg 91%

    Après-demain, 30 Mai, Mercredi

    Heure Température Précipitation Vent Pression Humidité
    00:00 +19°C° 0,1 mm 1 m/s 748 mmHg 92%
    01:00 +18°C° 0 mm 1 m/s 747 mmHg 93%
    02:00 +18°C° 0 mm 1 m/s 747 mmHg 93%
    03:00 +18°C° 0 mm 1 m/s 747 mmHg 94%
    04:00 +18°C° 0 mm 1 m/s 747 mmHg 93%
    05:00 +19°C° 0 mm 1 m/s 747 mmHg 92%
    06:00 +20°C° 0 mm 1 m/s 747 mmHg 91%
    07:00 +22°C° 0 mm 1 m/s 748 mmHg 84%
    08:00 +24°C° 0 mm 1 m/s 748 mmHg 77%
    09:00 +25°C° 0 mm 2 m/s 748 mmHg 71%
    10:00 +26°C° 0,1 mm 2 m/s 748 mmHg 67%
    11:00 +27°C° 0,1 mm 2 m/s 748 mmHg 63%
    12:00 +28°C° 0,1 mm 2 m/s 748 mmHg 60%
    13:00 +28°C° 0,9 mm 2 m/s 748 mmHg 63%
    14:00 +27°C° 0,9 mm 1 m/s 747 mmHg 67%
    15:00 +27°C° 0,9 mm 1 m/s 747 mmHg 70%
    16:00 +26°C° 0,5 mm 1 m/s 747 mmHg 74%
    17:00 +26°C° 0,5 mm 1 m/s 747 mmHg 78%
    18:00 +25°C° 0,5 mm 1 m/s 747 mmHg 81%
    19:00 +23°C° 0,2 mm 1 m/s 747 mmHg 85%
    20:00 +22°C° 0,2 mm 1 m/s 748 mmHg 88%
    21:00 +20°C° 0,2 mm 1 m/s 748 mmHg 92%
    22:00 +20°C° 0,4 mm 1 m/s 748 mmHg 92%
    23:00 +20°C° 0,4 mm 1 m/s 748 mmHg 93%

    31 Mai, Jeudi

    Heure Température Précipitation Vent Pression Humidité
    00:00 +19°C° 0,4 mm 1 m/s 748 mmHg 93%
    01:00 +19°C° 0 mm 1 m/s 748 mmHg 93%
    02:00 +19°C° 0 mm 1 m/s 748 mmHg 94%
    03:00 +19°C° 0 mm 1 m/s 748 mmHg 94%
    04:00 +19°C° 0,2 mm 1 m/s 748 mmHg 94%
    05:00 +20°C° 0,2 mm 1 m/s 748 mmHg 93%
    06:00 +21°C° 0,2 mm 1 m/s 748 mmHg 92%
    07:00 +22°C° 1,2 mm 1 m/s 749 mmHg 88%
    08:00 +24°C° 1,2 mm 1 m/s 749 mmHg 84%
    09:00 +25°C° 1,2 mm 2 m/s 749 mmHg 81%
    10:00 +25°C° 1,4 mm 1 m/s 749 mmHg 78%
    11:00 +26°C° 1,4 mm 1 m/s 749 mmHg 76%
    12:00 +26°C° 1,4 mm 1 m/s 749 mmHg 73%
    13:00 +26°C° 1,4 mm 1 m/s 749 mmHg 76%
    14:00 +25°C° 1,4 mm 2 m/s 749 mmHg 79%
    15:00 +25°C° 1,4 mm 2 m/s 749 mmHg 81%
    16:00 +24°C° 0,9 mm 2 m/s 749 mmHg 84%
    17:00 +23°C° 0,9 mm 2 m/s 749 mmHg 88%
    18:00 +21°C° 0,9 mm 2 m/s 749 mmHg 91%
    19:00 +20°C° 0,4 mm 2 m/s 749 mmHg 92%
    20:00 +20°C° 0,4 mm 2 m/s 749 mmHg 93%
    21:00 +19°C° 0,4 mm 2 m/s 750 mmHg 94%
    22:00 +20°C° 0,8 mm 1 m/s 750 mmHg 94%
    23:00 +20°C° 0,8 mm 1 m/s 750 mmHg 94%

    1 Juin, Vendredi

    Heure Température Précipitation Vent Pression Humidité
    00:00 +20°C° 0,8 mm 1 m/s 750 mmHg 95%
    01:00 +19°C° 0,2 mm 1 m/s 750 mmHg 95%
    02:00 +19°C° 0,2 mm 1 m/s 750 mmHg 95%
    03:00 +19°C° 0,2 mm 1 m/s 750 mmHg 95%
    04:00 +20°C° 0,2 mm 1 m/s 750 mmHg 94%
    05:00 +20°C° 0,2 mm 1 m/s 750 mmHg 93%
    06:00 +21°C° 0,2 mm 1 m/s 750 mmHg 92%
    07:00 +21°C° 0,6 mm 2 m/s 750 mmHg 89%
    08:00 +23°C° 0,6 mm 2 m/s 751 mmHg 86%
    09:00 +24°C° 0,6 mm 2 m/s 751 mmHg 82%
    10:00 +25°C° 0,8 mm 3 m/s 751 mmHg 79%
    11:00 +26°C° 0,8 mm 3 m/s 751 mmHg 75%
    12:00 +26°C° 0,8 mm 3 m/s 751 mmHg 72%
    13:00 +27°C° 0,5 mm 3 m/s 751 mmHg 71%
    14:00 +27°C° 0,5 mm 3 m/s 750 mmHg 69%
    15:00 +27°C° 0,5 mm 3 m/s 750 mmHg 68%
    16:00 +26°C° 0,5 mm 2 m/s 750 mmHg 71%
    17:00 +26°C° 0,5 mm 2 m/s 751 mmHg 75%
    18:00 +25°C° 0,5 mm 2 m/s 751 mmHg 78%
    19:00 +24°C° 0,1 mm 2 m/s 751 mmHg 79%
    20:00 +21°C° 0,1 mm 2 m/s 752 mmHg 81%
    21:00 +20°C° 0,1 mm 2 m/s 752 mmHg 82%
    22:00 +19°C° 0 mm 2 m/s 752 mmHg 84%
    23:00 +18°C° 0 mm 3 m/s 752 mmHg 85%

    2 Juin, Samedi

    Heure Température Précipitation Vent Pression Humidité
    00:00 +17°C° 0 mm 3 m/s 752 mmHg 86%
    01:00 +17°C° 0 mm 2 m/s 752 mmHg 86%
    02:00 +16°C° 0 mm 2 m/s 752 mmHg 87%
    03:00 +15°C° 0 mm 2 m/s 753 mmHg 87%
    04:00 +16°C° 0 mm 2 m/s 753 mmHg 85%
    05:00 +17°C° 0 mm 2 m/s 753 mmHg 83%
    06:00 +18°C° 0 mm 2 m/s 753 mmHg 81%
    07:00 +20°C° 0 mm 2 m/s 753 mmHg 75%
    08:00 +22°C° 0 mm 3 m/s 754 mmHg 68%
    09:00 +25°C° 0 mm 3 m/s 754 mmHg 62%
    10:00 +25°C° 0 mm 3 m/s 754 mmHg 59%
    11:00 +26°C° 0 mm 3 m/s 754 mmHg 56%
    12:00 +27°C° 0 mm 3 m/s 754 mmHg 53%
    13:00 +27°C° 0 mm 3 m/s 753 mmHg 53%
    14:00 +27°C° 0 mm 3 m/s 753 mmHg 53%
    15:00 +27°C° 0 mm 3 m/s 753 mmHg 53%
    16:00 +26°C° 0 mm 3 m/s 753 mmHg 58%
    17:00 +26°C° 0 mm 2 m/s 753 mmHg 63%
    18:00 +25°C° 0 mm 2 m/s 753 mmHg 68%
    19:00 +23°C° 0 mm 2 m/s 754 mmHg 70%
    20:00 +20°C° 0 mm 2 m/s 754 mmHg 72%
    21:00 +18°C° 0 mm 2 m/s 754 mmHg 75%
    22:00 +17°C° 0 mm 2 m/s 754 mmHg 76%
    23:00 +16°C° 0 mm 2 m/s 754 mmHg 77%
    Voir plus